Weather Service Report


210 
ASUS42 KCAE 012210
RWRCAE
REGIONAL WEATHER ROUNDUP
NATIONAL WEATHER SERVICE COLUMBIA SC
600 PM EDT FRI JUL 01 2016

NOTE: "FAIR" INDICATES FEW OR NO CLOUDS BELOW 12,000 FEET WITH NO
SIGNIFICANT WEATHER AND/OR OBSTRUCTIONS TO VISIBILITY.

NOT ALL STATIONS ARE QUALITY CONTROLLED BY THE NATIONAL 
WEATHER SERVICE. USE DATA WITH CAUTION...ESPECIALLY 
DEWPOINT OBSERVATIONS.

SCZ001>056-GAZ040-063>065-077-012300-
...UPSTATE SOUTH CAROLINA...
  
CITY           SKY/WX    TMP DP  RH WIND       PRES   REMARKS
ANDERSON       SUNNY     92  66  42 S9        29.95R                  
LIBERTY        CLEAR     90  65  43 SW7       29.95S                  
SPARTANBURG    CLOUDY    81  64  57 NE5       29.97S                  
CLEMSON        MOSUNNY   93  63  36 VRB5      29.96S                  
GREENVILLE     SUNNY     90  66  45 S7        29.97S                  
GREENWOOD      MOSUNNY   92  66  42 S7        29.97R                  
GREER          MOSUNNY   88  66  48 E15       29.95S                  
ROCK HILL      MOSUNNY   86  69  56 SW3       29.96S                  
LAURENS        PTCLDY    90  66  45 NW3       29.96S                  


...CENTRAL SOUTH CAROLINA...
  
CITY           SKY/WX    TMP DP  RH WIND       PRES   REMARKS
COLUMBIA APT   PTSUNNY   92  68  45 SE8       29.94R HX  96           
COLUMBIA OWENS MOSUNNY   91  68  46 S5        29.95R HX  95           
MCENTIRE ANGB  SUNNY     90  69  49 SW6       29.95R                  
ORANGEBURG     MOSUNNY   92  69  47 SW12      29.96R HX  97           
SUMTER SHAW    SUNNY     92  71  49 S7        29.94R HX  98           
NEWBERRY       CLEAR     90  68  48 SW7       29.97F                  
AIKEN          FAIR      90  70  51 S6        30.00R HX  95           
BARNWELL       FAIR      91  72  52 S5        29.97S HX  98           
MANNING        FAIR      88  72  58 S3        29.97R                  
CAMDEN         FAIR      91  70  49 CALM      29.95S HX  97           
LANCASTER      PTCLDY    91  66  43 SE7       29.95F                  
WINNSBORO      CLEAR     90  68  48 S6        29.96S                  


...EASTERN AND COASTAL SOUTH CAROLINA...
  
CITY           SKY/WX    TMP DP  RH WIND       PRES   REMARKS
MYRTLE BEACH   PTSUNNY   82  70  65 S14       30.00S                  
N MYRTLE BCH   MOSUNNY   82  74  76 S14       29.99R                  
CONWAY         FAIR      82  75  78 S10       29.99R                  
MARION         FAIR      88  70  55 S12       29.97R                  
HARTSVILLE     MOCLDY    86  72  62 S7        29.95S                  
FLORENCE       SUNNY     91  69  48 VRB7      29.96R HX  96           
DARLINGTON       N/A     88  74  63 S8        29.96R HX  96           
CHARLESTON APT CLOUDY    78  69  73 E14       30.00R THUNDER          
MOUNT PLEASANT MOCLDY    81  77  89 S9G17     30.00S                  
WALTERBORO     PTCLDY    88  75  66 S12       29.98S HX  97           
BEAUFORT       LGT RAIN  80  77  90 S12G23    29.99S FOG              


...EASTERN GEORGIA...
  
CITY           SKY/WX    TMP DP  RH WIND       PRES   REMARKS
AUGUSTA BUSH F MOSUNNY   92  71  50 S8        29.94R HX  98           
AUGUSTA DANIEL CLOUDY    91  70  49 SE7       29.96R HX  96           
THOMSON        SUNNY     92  73  53 S3        29.99S HX 101           
WASHINGTON     FAIR      90  68  48 SW3       29.96R                  
CLAXTON        FAIR      89  77  68 SE9       29.96F HX 101           
SYLVANIA       CLEAR     93  71  49 SW3       29.97S HX 100           
STATESBORO     MOSUNNY   92  74  56 SE6       29.96F HX 102           
SAVANNAH       CLOUDY    82  72  71 S8        29.98F                  


...SOUTHERN NORTH CAROLINA...
  
CITY           SKY/WX    TMP DP  RH WIND       PRES   REMARKS
CHARLOTTE      CLOUDY    84  68  58 SW5       29.96S                  
MONROE         SUNNY     86  67  52 SW5       29.95S                  
WADESBORO      PTCLDY    90  68  47 S7        29.93S                  
ROCKINGHAM     PTCLDY    88  71  57 S6        29.95S                  
RUTHERFORDTON  SUNNY     86  69  56 SE12      29.97S                  
ASHEVILLE      PTSUNNY   86  57  37 NW6       30.03R                  

$$
  

Return to Home page


Western Regional Climate Center, wrcc@dri.edu